Regional Weather Roundup
Issued by NWS Pendleton, OR

Home | Current Version | Previous Version | Text Only | Print | Product List | Glossary On
Versions: 1 2 3 4 5 6 7 8 9 10 11 12 13 14 15 16 17 18 19 20 21 22 23 24 25 26 27 28 29 30 31 32 33 34 35 36 37 38 39 40 41 42 43 44 45 46 47 48 49 50
000
ASUS46 KPDT 281225
RWRPDT
PENDLETON REGIONAL WEATHER ROUNDUP
NATIONAL WEATHER SERVICE PENDLETON OREGON
400 AM PST WED JAN 28 2015

NOTE: FAIR INDICATES FEW OR NO CLOUDS BELOW 12,000 FEET WITH NO
SIGNIFICANT WEATHER AND/OR OBSTRUCTIONS TO VISIBILITY.

# INDICATES UNOFFICIAL STATION AND DATA

WAZ520-281310-
EAST SLOPES OF WASHINGTON CASCADES

CITY            SKY/WX      TMP DP  RH  WIND    PRES   REMARKS
#BULLFROG 2SW   N/A         39  39  100 CALM    27.84R
#BUMPING DAM    N/A         33  N/A N/A S2      N/A
#CLE ELUM HS    N/A         36  33  89  CALM    30.20R
#CLE ELUM LAKE  N/A         39  33  79  CALM    30.25R
#CLIFFDEL 2NW   N/A         33  32  96  N2      N/A
#GLENWOOD       N/A         30  29  96  CALM    30.32R
#MANASTASH CYN  N/A         30  26  85  CALM    30.19R
#NELSON         N/A         37  35  92  CALM    30.32R
#NELSON 3SW     N/A         39  34  82  CALM    30.50R
#NILE           N/A         31  29  92  CALM    29.55R
#RONALD 2NW     N/A         37  29  72  NE1     30.09R
#SNOWDEN        N/A         41  34  76  CALM    N/A
#TEANAWAY 4NE   N/A         33  32  96  CALM    N/A
#TROUT LAKE 1NE N/A         38  36  92  CALM    30.29R
$$

WAZ521-281310-
SIMCOE HIGHLANDS

CITY            SKY/WX      TMP DP  RH  WIND    PRES   REMARKS
#BICKLETON HS   N/A         38  25  59  W7      N/A
#CENTERVILLE 4W N/A         44  42  93  NW8     30.00R
#CENTERVILLE 1SWN/A         40  37  89  CALM    30.26R
#GOLDENDALE     N/A         38  38  100 W1      N/A
#GOLDENDALE 1NE N/A         32  29  89  N2      N/A
#GOLDENDALE 1S  N/A         43  40  89  E6      30.22R
#GOLDENDALE 5WNWN/A         42  38  86  NW5     30.30R
#GOODNOE HILLS  N/A         42  39  89  SW6     N/A
#LYLE 6NE       N/A         44  43  96  S2      30.27R
$$

WAZ026-281310-
KITTITAS VALLEY

CITY            SKY/WX      TMP DP  RH  WIND    PRES   REMARKS
ELLENSBURG AP   PTCLDY      41  33  73  NW13    30.24R WCI 34
6HR MIN TEMP:   41; 6HR MAX TEMP:   48;

#ELLENSBURG CWU N/A         42  36  79  N6      30.23R
#ELLENSBURG 3NE N/A         41  36  82  N5      30.24R
#ELLENSBURG 1E  N/A         36  32  85  CALM    N/A
#KITTITAS 4N    N/A         37  31  79  CALM    28.55R
#KITTITAS 3S    N/A         32  30  92  CALM    30.28R
#THORP 6N       N/A         39  35  85  NW5     30.28R
$$

WAZ027-281310-
YAKIMA VALLEY

CITY            SKY/WX      TMP DP  RH  WIND    PRES   REMARKS
SUNNYSIDE AP    FOG         32  32  100 NE5     30.29R VSB 1/2
YAKIMA AIRPORT  FOG         33  31  92  W3      30.29R VSB 1/4
YAKIMA-VAGABOND FRZFOG      28  28  100 W1      30.27R VSB 3/8
#DONALD 2NE     N/A         33  33  100 CALM    29.13R
#GRANDVIEW      N/A         34  33  96  CALM    30.34R
#MABTON         N/A         34  34  100 CALM    30.29R
#MOXEE 2E       N/A         34  34  100 CALM    30.25R
#NACHES 2SW     N/A         42  37  82  W6      30.23S
#OUTLOOK DOT    N/A         N/A N/A N/A W1      N/A
#SELAH 8E       N/A         33  33  100 SE5     N/A
#TERRACE HTS    N/A         32  31  96  CALM    30.29R
#TOPPENISH      N/A         34  33  96  CALM    30.24R
#WAPATO 4NE     N/A         33  33  100 CALM    29.13R
#WEST VALLEY    N/A         32  31  96  CALM    30.31R
#W YAKIMA       N/A         31  30  96  W1      30.33R
#WHITE SWAN 5E  N/A         34  33  96  CALM    30.33R
#WILEY CITY 3W  N/A         27  24  88  CALM    30.29R
$$

WAZ028-281310-
LOWER COLUMBIA BASIN...WASHINGTON

CITY            SKY/WX      TMP DP  RH  WIND    PRES   REMARKS
HANFORD         HVY DRIZZLE 35  35  100 W2      30.29R VSB 0
6HR MIN TEMP:   35; 6HR MAX TEMP:   37; 6HR PCP:  TRACE;

PASCO           CLOUDY      36  36  100 CALM    30.33R FOG
PROSSER AWOS    N/A         34  34  100 E1      30.34R
RICHLAND AWOS   FOG         36  36  100 CALM    30.32R VSB 3/4
#BASIN CITY 5SW N/A         35  34  96  E1      30.31R
#BENTON CITY    N/A         33  33  100 CALM    30.24R
#CONNELL 5N     N/A         32  32  100 NE2     30.33R
#CONNELL 5NW    N/A         33  33  100 SW2     30.29R
#ELTOPIA 6NW    N/A         34  34  100 SE2     29.25R
#KAHLOTUS       N/A         33  33  100 E1      30.33R
#KENNEWICK      N/A         39  39  100 CALM    27.84R
#KENNEWICK 3S   N/A         33  32  96  CALM    30.34R
#PASCO-BROADMOORN/A         36  32  85  CALM    30.25R
#PATERSON       N/A         36  35  96  CALM    30.31R
#PROSSER        N/A         32  31  96  SW1     30.32R
#SAGEMOOR 2W    N/A         36  35  96  CALM    30.18R
#TOUCHET 2S     N/A         35  34  96  CALM    30.33R
#WEST PASCO     N/A         37  35  92  CALM    30.29R
$$

WAZ029-281310-
FOOTHILLS OF THE BLUES...WASHINGTON

CITY            SKY/WX      TMP DP  RH  WIND    PRES   REMARKS
WALLA WALLA AP  CLOUDY      45  40  82  S5      30.28R
6HR MIN TEMP:   41; 6HR MAX TEMP:   46;

#DAYTON SCHOOL  N/A         43  36  76  S2      30.27R
#LOWDEN 2SE     N/A         32  31  96  CALM    30.27R
#PLEASANT VIEW 1N/A         36  36  100 S5      30.37R
#PRESCOTT       N/A         32  31  96  CALM    30.31R
#SUDBURY        N/A         37  N/A N/A CALM    N/A
#WHITMAN COLLEGEN/A         45  41  86  CALM    30.36R
#WAITSBURG 5S   N/A         42  40  93  S5      30.41R
#WAITSBURG 8N   N/A         41  36  82  S6      30.15R
#WALLA WALLA 5E N/A         46  43  89  SW5     N/A
#WALLA WALLA U  N/A         36  35  96  CALM    30.32R
#WHITMAN MISSIONN/A         34  33  96  CALM    30.34R
$$

WAZ030-281310-
BLUE MOUNTAINS...WASHINGTON

CITY            SKY/WX      TMP DP  RH  WIND    PRES   REMARKS
#SKI BLUEWOOD   N/A         37  33  85  CALM    30.21R
$$

ORZ009-041-WAZ024-281310-
COLUMBIA RIVER GORGE

CITY            SKY/WX      TMP DP  RH  WIND    PRES   REMARKS
HOOD RIVER AP   CLOUDY      45  43  93  S5      30.30R
THE DALLES AP   CLOUDY      47  42  83  CALM    30.29R
6HR MIN TEMP:   45; 6HR MAX TEMP:   50;

#ARLINGTON AIRPON/A         34  33  96  CALM    30.02R
#ARLINGTON HS   N/A         33  32  96  CALM    30.25R
#CELILO DOT     N/A         47  39  74  NE1     N/A
#LYLE           N/A         50  47  89  CALM    30.30R
#MOSIER 1S      N/A         47  45  93  CALM    30.29S
#MURDOCK        N/A         47  45  93  CALM    30.32R
#RUFUS DOT      N/A         N/A N/A N/A CALM    N/A

$$

ORZ510-281310-
NORTH CENTRAL OREGON

CITY            SKY/WX      TMP DP  RH  WIND    PRES   REMARKS
#CHENOWITH 1W   N/A         45  45  100 W15     N/A    WCI 38
#COW CYN RST AREN/A         43  37  79  CALM    N/A
#DUFUR 9E       N/A         42  41  96  S2      30.33R
#KENT DOT       N/A         38  32  79  S7      N/A
#MAUPIN SCHOOL  N/A         39  36  89  CALM    30.30R
#MORO SCHOOL    N/A         40  40  100 SW5     30.27R
#SHANIKO 5WSW   N/A         42  33  70  S5      N/A
#SHANIKO 4NW    N/A         41  37  86  SW1     30.26R
#TYGH VALLEY 2NEN/A         37  35  92  NE2     30.32R
#WAPANITIA AIRPON/A         38  36  92  CALM    30.33R
#WASCO DOT      N/A         43  41  93  CALM    N/A
#WASCO AIRPORT  N/A         44  41  89  W5      N/A
#WASCO 5NE      N/A         42  40  93  SW2     30.30R
$$

ORZ511-281310-
CENTRAL OREGON

CITY            SKY/WX      TMP DP  RH  WIND    PRES   REMARKS
BEND AIRPORT    PTCLDY      32  30  92  CALM    30.28R
MADRAS AIRPORT  N/A         37  34  89  S7      30.29R
PRINEVILLE AP   PTCLDY      30  30  100 CALM    30.28R
REDMOND AIRPORT PTCLDY      30  28  92  CALM    30.27R
6HR MIN TEMP:   29; 6HR MAX TEMP:   41;

#BEND 1SW       N/A         36  32  85  CALM    N/A
#BEND-AWBREY    N/A         38  33  82  CALM    30.27R
#BEND-KIM LN    N/A         37  32  82  CALM    30.23S
#CROOKED RVR RANN/A         38  34  85  NW22    30.29R WCI 27
#CULVER         N/A         38  34  85  CALM    30.24R
#LAKE BILLY CHINN/A         41  31  67  CALM    30.33S
#POWELL BUTTE 3EN/A         37  33  85  SE2     N/A
#POWELL BUTTE   N/A         38  32  79  S2      29.88R
#PRINEVILLE 3N  N/A         31  30  96  CALM    30.27S
#WARM SPRINGS   N/A         37  35  92  CALM    30.25R

$$


ORZ509-281310-
EAST SLOPES OF OREGON CASCADES

CITY            SKY/WX      TMP DP  RH  WIND    PRES   REMARKS
#BLUE BOX PASS  N/A         39  -11 11  CALM    N/A
#CAMP SHERMAN   N/A         38  35  89  CALM    30.33R
#LA PINE DOT    N/A         28  26  92  CALM    N/A
#LA PINE 4NW    N/A         27  23  85  CALM    30.38S
#LAVA BUTTE DOT N/A         37  30  75  CALM    N/A
#MT BACHELOR-MIDN/A         30  29  96  NE17    N/A    WCI 18
#SISTERS AIRPOR N/A         29  29  100 CALM    30.17S
#SISTERS ODOT   N/A         30  N/A N/A CALM    N/A
#SISTERS 1NW    N/A         31  29  92  N6      N/A
#SISTERS 3N     N/A         30  24  78  CALM    30.28R
#SUNRIVER       N/A         34  30  85  CALM    30.20S
#TUMALO 3W      N/A         41  34  76  SE3     30.15S
#WANOGA BUTTE D N/A         37  30  75  W2      N/A

$$

ORZ044-281310-
LOWER COLUMBIA BASIN...OREGON

CITY            SKY/WX      TMP DP  RH  WIND    PRES   REMARKS
HERMISTON       FOG         32  32  100 CALM    30.29R VSB 1/4
6HR MIN TEMP:   31; 6HR MAX TEMP:   37;

#BOARDMAN SCHOOLN/A         37  37  100 CALM    30.33R
#BOARDMAN 8SW   N/A         37  36  96  N1      30.32R
#ECHO 8SW       N/A         32  32  100 CALM    30.27R
#IONE SCHOOL    N/A         39  26  59  CALM    30.26R
#IRRIGON 4NW    N/A         38  38  100 CALM    N/A
#UMATILLA SCHOOLN/A         33  33  100 S1      30.35R
#UMATILLA       N/A         37  34  89  SE1     30.29R
$$

ORZ507-281310-
NORTHERN FOOTHILLS OF THE BLUES

CITY            SKY/WX      TMP DP  RH  WIND    PRES   REMARKS
PENDLETON AIRPT MOCLDY      43  38  82  S6      30.27R
6HR MIN TEMP:   41; 6HR MAX TEMP:   45;

#ADAMS 3WNW     N/A         41  38  89  CALM    30.32S
#ATHENA         N/A         43  40  89  CALM    30.34R
#CAYUSE         N/A         46  41  83  W3      30.31R
#HELIX SCHOOL   N/A         40  38  92  S3      30.32R
#HELIX 3N       N/A         41  39  93  N6      30.22R
#HOLDMAN 5SE    N/A         39  37  92  CALM    30.27R
#HOLDMAN 6E     N/A         39  38  96  CALM    30.13R
#M-F FERNDALE   N/A         35  33  92  CALM    30.27R
#M-F GROVE ELEM N/A         47  40  76  CALM    30.26R
#M-FREEWATER 5SEN/A         47  41  79  CALM    30.27R
#PENDLETON DNTN N/A         35  32  89  CALM    29.08R
#PDT AQUATIC CTRN/A         38  36  92  CALM    30.28R
#PENDLETON 5NE  N/A         42  39  89  CALM    30.24R
#PDT SUNRIDGE   N/A         41  39  93  CALM    30.29R
#PENDLETON 7NW  N/A         34  31  89  E2      27.75R
#TUTUILLA       N/A         42  39  89  S3      30.32R
#UMAPINE 2E     N/A         36  35  96  CALM    30.27R
#WESTON SCHOOL  N/A         45  39  79  W6      30.25R

$$

ORZ508-281310-
SOUTHERN FOOTHILLS OF THE BLUES

CITY            SKY/WX      TMP DP  RH  WIND    PRES   REMARKS
LEXINGTON       PTCLDY      45  39  79  SE6     30.29R
#AJAX           N/A         42  33  70  CALM    30.18S
#CONDON SCHOOL  N/A         40  37  89  CALM    30.21R
#CONDON 5W      N/A         41  36  82  W10     30.23R
#HEPPNER EOC    N/A         43  38  82  E3      30.25R
#HEPPNER 4NE    N/A         43  38  82  SW2     30.27S
#LEXINGTON 2SE  N/A         42  38  86  CALM    30.24R
#MIKKALO        N/A         46  40  79  S6      30.26R
#OLEX 4N        N/A         44  40  86  SW6     30.27R
#RUGGS 5NE      N/A         42  38  86  SW2     30.40S
#RUGGS 2SW      N/A         43  37  79  SW5     30.29R

$$

ORZ502-503-281310-
BLUE MOUNTAINS

CITY            SKY/WX      TMP DP  RH  WIND    PRES   REMARKS
MEACHAM         CLOUDY      40  36  85  CALM    30.26R
6HR MIN TEMP:   34; 6HR MAX TEMP:   41;

#BATTLE MTN DOT N/A         38  38  100 CALM    N/A
#HARDMAN 10S    N/A         34  33  96  CALM    30.40R
#HEPPNER 15SE   N/A         39  36  89  NW1     30.16R
#LADD CYN SMT   N/A         33  30  89  SE2     N/A
#LADD CREEK ODOTN/A         35  33  92  SW5     N/A
#LONG CREEK HS  N/A         39  38  96  CALM    30.23R
#N POWDER DOT   N/A         27  26  96  W2      N/A
#PIKES PEAK     N/A         39  38  96  S12     27.99S WCI 32
#TOLLGATE       N/A         34  33  96  SW2     30.13R
#TROY SCHOOL    N/A         39  36  89  CALM    30.16R
#UKIAH          N/A         29  28  96  CALM    30.42R
#WESTON 4E      N/A         40  38  92  S7      30.21R
$$

ORZ505-281310-
JOHN DAY BASIN

CITY            SKY/WX      TMP DP  RH  WIND    PRES   REMARKS
JOHN DAY        CLOUDY      38  34  85  E5      30.28R
#JOHN DAY KJDY  N/A         38  38  100 CALM    30.55R
#DAYVILLE SCHOOLN/A         39  34  82  CALM    30.24S
#MITCHELL       N/A         43  40  89  CALM    30.39R
#MONUMENT HS    N/A         35  33  92  CALM    30.29R
#MT. VERNON 5SE N/A         40  35  82  CALM    30.23R
#WINLOCK        N/A         41  36  82  CALM    30.33R
$$

ORZ506-281310-
OCHOCO AND JOHN DAY HIGHLANDS

CITY            SKY/WX      TMP DP  RH  WIND    PRES   REMARKS
#BUCK CREEK DOT N/A         42  42  100 NE1     N/A
#HORSE RIDGE DO N/A         27  25  92  SE2     N/A
#KEYES SMT DOT  N/A         40  35  82  E1      N/A
#PAULINA SCHOOL N/A         44  34  68  CALM    30.22R
#PINE MTN OBS   N/A         37  30  75  W1      N/A
#PRAIRIE CITY   N/A         33  30  89  CALM    30.43S
#SENECA         N/A         29  N/A N/A CALM    N/A
#SENECA 9NW     N/A         28  27  96  CALM    30.37R
$$

ORZ049-281310-
GRANDE RONDE VALLEY

CITY            SKY/WX      TMP DP  RH  WIND    PRES   REMARKS
LA GRANDE       CLOUDY      39  30  70  CALM    30.26R
#COVE           N/A         42  36  79  CALM    30.03S
#COVE SCHOOL    N/A         43  38  82  CALM    30.23R
#COVE 6NW       N/A         40  35  82  CALM    30.36R
#ELGIN 3N       N/A         38  33  82  CALM    30.06R
#ELGIN 1E       N/A         40  36  85  CALM    N/A
#IMBLER SCHOOL  N/A         43  36  76  CALM    30.21R
#ISLAND CITY 4N N/A         47  47  100 CALM    30.31R
#LADD CYN DOT   N/A         40  33  76  SE8     N/A
#UNION 1S       N/A         38  35  89  CALM    30.24R
$$

ORZ050-281310-
WALLOWA COUNTY

CITY            SKY/WX      TMP DP  RH  WIND    PRES   REMARKS
JOSEPH AIRPORT  CLOUDY      32  32  100 CALM    30.26R
#ENTERPRISE AP  N/A         34  31  89  CALM    30.17R
#ENTERPRISE HS  N/A         31  30  96  CALM    30.25R
#IMNAHA SCHOOL  N/A         42  36  79  S2      30.26R
#IMNAHA 10S     N/A         42  35  76  CALM    30.24R
#JOSEPH 3N      N/A         30  30  100 CALM    30.27R
#JOSEPH 3W      N/A         33  29  85  CALM    30.06R
#LOSTINE        N/A         32  31  96  CALM    30.18R
#MT HOWARD 8000 N/A         29  22  75  SW1     30.19R
#PROMISE 1S     N/A         40  36  85  E2      30.38R
#SHEEP RDG 7000 N/A         29  24  81  CALM    30.17R
#WALLOWA SCHOOL N/A         34  33  96  E1      31.36R



$$



USA.gov is the U.S. government's official web portal to all federal, state and local government web resources and services.